Fitchburg, MA

11:43 AM EDT on July 23, 2019 (GMT -0400)
Fitchburg Municipal

Weather History for KFIT - May, 2019

Change the Weather History Date:

Friday, May 10, 2019

  Actual Average (KORH) Record (KORH)
Temperature  
Mean Temperature 56 °F -  
Max Temperature 64 °F 63 °F 90 °F (1979)
Min Temperature 48 °F 44 °F 30 °F (1958)
Degree Days  
Heating Degree Days 9    
Growing Degree Days 6 (Base 50)    
Moisture  
Dew Point 50 °F    
Average Humidity 80    
Maximum Humidity 97    
Minimum Humidity 44    
Precipitation  
Precipitation 0.02 in - - ()
Sea Level Pressure  
Sea Level Pressure 30.01 in    
Wind  
Wind Speed 7 mph (SSE)    
Max Wind Speed 13 mph    
Max Gust Speed 18 mph    
Visibility 8 miles    
Events Fog , Rain    
Averages and records for this station are not official NWS values.
T = Trace of Precipitation, MM = Missing Value Source: NWS Daily Summary

Daily Weather History Graph

Daily Weather History Graph

Search for Another Location

Airport or City:

Astronomy

May. 10, 2019 Rise Set
Actual Time 5:30 AM EDT 7:56 PM EDT
Civil Twilight 4:59 AM EDT 8:28 PM EDT
Nautical Twilight 4:19 AM EDT 9:08 PM EDT
Astronomical Twilight 3:35 AM EDT 9:52 PM EDT
Moon 10:25 AM EDT (5/10) 12:49 AM EDT (5/10)
Length of Visible Light 15h 29m
Length of Day
14h 25m
Waxing Crescent, 35% of the Moon is Illuminated
May 10
Waxing Crescent
May 11
First Quarter
May 18
Full
May 26
Last Quarter
Jun 3
New

Hourly Weather History & Observations

Time (EDT) Temp. Dew Point Humidity Pressure Visibility Wind Dir Wind Speed Gust Speed Precip Events Conditions
12:52 AM 51.1 °F 33.1 °F 50% 30.28 in 10.0 mi SSE 6.9 mph - N/A   Overcast
1:52 AM 51.1 °F 30.0 °F 44% 30.27 in 10.0 mi SSE 6.9 mph - N/A   Overcast
2:52 AM 48.9 °F 33.1 °F 54% 30.24 in 10.0 mi ESE 4.6 mph - 0.00 in   Overcast
3:52 AM 48.9 °F 33.1 °F 54% 30.23 in 10.0 mi SSE 5.8 mph - N/A   Overcast
4:52 AM 48.9 °F 32.0 °F 52% 30.22 in 10.0 mi SE 8.1 mph - N/A   Overcast
5:52 AM 48.9 °F 33.1 °F 54% 30.21 in 10.0 mi SE 8.1 mph - N/A   Overcast
6:52 AM 48.9 °F 35.1 °F 59% 30.21 in 10.0 mi SSE 10.4 mph - N/A   Overcast
7:52 AM 50.0 °F 37.0 °F 61% 30.20 in 10.0 mi SE 6.9 mph - N/A   Overcast
8:52 AM 52.0 °F 39.9 °F 63% 30.14 in 10.0 mi SSE 12.7 mph - N/A   Overcast
9:52 AM 53.1 °F 43.0 °F 69% 30.12 in 10.0 mi South 11.5 mph - N/A   Overcast
10:52 AM 54.0 °F 45.0 °F 72% 30.09 in 10.0 mi SSE 10.4 mph - N/A   Overcast
11:52 AM 55.0 °F 46.0 °F 72% 30.08 in 10.0 mi SSE 9.2 mph 18.4 mph N/A   Overcast
12:52 PM 55.0 °F 48.9 °F 80% 30.04 in 7.0 mi SSE 12.7 mph - 0.00 in Rain Light Rain
1:24 PM 55.0 °F 50.0 °F 83% 30.02 in 9.0 mi SSE 11.5 mph - 0.00 in Rain Light Rain
1:52 PM 55.0 °F 51.1 °F 86% 30.01 in 10.0 mi SSE 9.2 mph - 0.01 in   Overcast
2:22 PM 55.9 °F 52.0 °F 87% 29.99 in 10.0 mi SSE 9.2 mph - N/A   Overcast
2:52 PM 57.0 °F 53.1 °F 87% 29.99 in 7.0 mi SSE 8.1 mph - N/A   Overcast
3:52 PM 57.9 °F 55.0 °F 90% 29.96 in 10.0 mi South 11.5 mph - 0.00 in   Overcast
4:16 PM 59.0 °F 55.0 °F 87% 29.94 in 7.0 mi South 10.4 mph - N/A   Overcast
4:35 PM 59.0 °F 55.9 °F 90% 29.94 in 2.5 mi South 6.9 mph - 0.01 in Rain Light Rain
4:43 PM 59.0 °F 55.9 °F 90% 29.94 in 5.0 mi South 6.9 mph - 0.01 in   Overcast
4:52 PM 59.0 °F 57.0 °F 93% 29.94 in 5.0 mi South 8.1 mph - 0.01 in   Overcast
5:33 PM 61.0 °F 57.0 °F 87% 29.93 in 10.0 mi SSW 5.8 mph - N/A   Overcast
5:52 PM 62.1 °F 57.9 °F 86% 29.92 in 10.0 mi South 4.6 mph - N/A   Overcast
6:34 PM 63.0 °F 57.9 °F 84% 29.92 in 10.0 mi Calm Calm - N/A   Overcast
6:52 PM 63.0 °F 57.9 °F 84% 29.92 in 10.0 mi East 3.5 mph - N/A   Overcast
7:38 PM 63.0 °F 57.9 °F 84% 29.91 in 10.0 mi Calm Calm - N/A   Mostly Cloudy
7:47 PM 62.6 °F 57.2 °F 82% 29.91 in 10.0 mi Calm Calm - N/A   Mostly Cloudy
7:52 PM 61.0 °F 57.0 °F 87% 29.91 in 10.0 mi East 3.5 mph - N/A   Mostly Cloudy
8:41 PM 57.9 °F 55.9 °F 93% 29.91 in 7.0 mi Calm Calm - N/A   Scattered Clouds
8:52 PM 57.9 °F 55.9 °F 93% 29.92 in 4.0 mi Calm Calm - N/A   Scattered Clouds
9:00 PM 57.9 °F 55.9 °F 93% 29.92 in 6.0 mi NNW 3.5 mph - N/A   Mostly Cloudy
9:50 PM 57.2 °F 55.4 °F 94% 29.90 in 1.8 mi Calm Calm - N/A   Mostly Cloudy
9:52 PM 57.0 °F 55.9 °F 96% 29.91 in 1.0 mi Calm Calm - N/A   Scattered Clouds
9:55 PM 57.0 °F 55.9 °F 96% 29.90 in 0.5 mi Calm Calm - N/A Fog Fog
10:06 PM 55.9 °F 54.0 °F 93% 29.90 in 0.5 mi North 3.5 mph - N/A Fog Fog
10:09 PM 55.9 °F 55.0 °F 97% 29.90 in 1.5 mi NW 3.5 mph - N/A   Mostly Cloudy
10:11 PM 55.9 °F 55.0 °F 97% 29.90 in 3.0 mi NW 3.5 mph - N/A   Mostly Cloudy
10:52 PM 57.0 °F 55.9 °F 96% 29.90 in 5.0 mi Calm Calm - N/A   Overcast
11:20 PM 64.0 °F 59.0 °F 84% 29.90 in 10.0 mi West 11.5 mph 16.1 mph N/A   Overcast
11:52 PM 63.0 °F 57.0 °F 81% 29.91 in 10.0 mi WNW 8.1 mph - N/A   Overcast